PODSAT (43229 NORAD) Tracking and Keplerian Element Data

This shows tracking and keplerian element data for the satellite.

Feedback or suggestion? Click here.




ElementValue
Catalog43229
NamePODSAT
Epoch Orbit936
Epoch Day94.86511388
Epoch Year2018
RAAN59.8742
Inclination27.0516
Eccentricity0.6264272
Argument of Perigee211.0897
Mean Anonmoly88.6543
Mean Motion3.72658995
Decay Rate0.00010744
L11 43229U 18023B 18094.86511388 .00010744 64668-6 28865-3 0 9990
L22 43229 27.0516 59.8742 6264272 211.0897 88.6543 3.72658995 9361

Live tracking and technical data element details for PODSAT (NORAD 43229). PODSAT can be tracked NOW for your location showing map with azimuth and elevation plus other details from your city location.

Track the satellite on the map from your city or location and see movement details for azimuth, elevation, latitude, longitude, range, height, and movement on the map or in text.







IsCatalogInMostPopularTable: catalog: 43229, numindb: 79
Update: records affected: 1



GetName: 43229 PODSAT

Hit Count: updated at: Tue, 13 Nov 2018 06:35:44 GMT